Regional Weather Roundup
Issued by NWS Sioux Falls, SD

Home | Current Version | Previous Version | Graphics & Text | Print | Product List | Glossary On
Versions: 1 2 3 4 5 6 7 8 9 10 11 12 13 14 15 16 17 18 19 20 21 22 23 24 25 26 27 28 29 30 31 32 33 34 35 36 37 38 39 40 41 42 43 44 45 46 47 48 49 50
000
ASUS43 KFSD 250202
RWRFSD

WEATHER ROUNDUP FOR SE SOUTH DAKOTA/SW MINNESOTA/NW IOWA
NATIONAL WEATHER SERVICE SIOUX FALLS SD
900 PM CDT WED MAY 24 2017

NOTE: "FAIR" INDICATES FEW OR NO CLOUDS BELOW 12,000 FEET WITH NO
SIGNIFICANT WEATHER AND OR OBSTRUCTIONS TO VISIBILITY.


SDZ038>040-050-052>070-250300-
SOUTHEAST SOUTH DAKOTA

CITY           SKY/WX    TMP DP  RH WIND       PRES   REMARKS
BROOKINGS      CLEAR     55  46  71 SE13      29.64F
CHAMBERLAIN    NOT AVBL
HURON          CLEAR     59  46  62 SE12      29.57F
MITCHELL       CLEAR     60  45  57 SE15      29.60S
SIOUX FALLS    PTCLDY    58  46  64 SE8       29.65S
WINNER         FAIR      62  45  53 SE15      29.49F
YANKTON        CLEAR     59  45  59 E7        29.63F
$$

MNZ071-072-080-081-089-090-097-098-250300-
SOUTHWEST MINNESOTA

CITY           SKY/WX    TMP DP  RH WIND       PRES   REMARKS
FAIRMONT       MOCLDY    58  47  66 CALM      29.70R
MARSHALL       CLOUDY    57  46  66 SE7       29.68F
REDWOOD FALLS  CLOUDY    58  45  62 E6        29.68S
WORTHINGTON    CLEAR     52  46  80 E8        29.69S
$$

IAZ001>003-012>014-020>022-031-032-NEZ013-014-SDZ071-250300-
NORTHWEST IOWA

CITY           SKY/WX    TMP DP  RH WIND       PRES   REMARKS
CHEROKEE       CLEAR     55  46  72 E5        29.67S
DENISON        CLEAR     55  46  71 E3        29.68S
ESTHERVILLE    CLEAR     54  48  80 N3        29.68S
LE MARS        CLEAR     61  45  55 SE3       29.67R
ORANGE CITY    CLEAR     57  48  72 E5        29.67S
SHELDON        PTCLDY    57  45  62 E8        29.66S
SIOUX CITY     CLEAR     59  45  59 SE6       29.66S
SPENCER        CLEAR     54  46  74 E7        29.68F
STORM LAKE     CLOUDY    59  45  58 E5        29.68S
$$

ABBREVIATIONS USED IN REMARKS
   TC - TEMPERATURE IN CELSIUS
  WCI - WIND CHILL INDEX
   HX - HEAT INDEX
  VSB - VISIBILITY





USA.gov is the U.S. government's official web portal to all federal, state and local government web resources and services.